カタログに戻る

STARLINK-3393

運用中通信VLEO
NORAD 51132·PAYLOAD·🇺🇸 United States

打ち上げ Jan 19, 2022 から Cape Canaveral Space Force Station

Loading…

次のパス (今後24時間)

TLE

最新Source: CelesTrak SupGP

元期: Sep 14, 2026, 21:10 UTC

1 51132C 22005AE  26257.88243056 -.00067876  00000+0 -20053-2 0  2573
2 51132  53.1589 164.0758 0001313  95.5524 140.1988 15.34426032    16

AllMySatでSTARLINK-3393をリアルタイム追跡

Download on the App Store